RYR10XW LERS-EHEH

Flight info

Callsign RYR10XW
Flight time 1h 56m
Altitude 36000
Route ARBEK T113 RUTIP DCT OKABI DCT TOU DCT ADABI DCT BOKNO UN858 VANAD UN874 ARSAF DCT EGOZE DCT CMB DCT VEKIN DCT ADUTO N873 FERDI Y18 DENUT
Aircraft B738/M-SDE2E3FGHIRWXY/LB1

Departure

Time 2026-04-23 07:56
Airport Reus Airport (LERS)

Arrival

Time 2026-04-23 09:52
Airport Eindhoven Airport (EHEH)
Time Latitude Longitude Altitude Speed Heading
2026-04-23 07:30 41.14662 1.15562 242 ft 0 kts 339°
2026-04-23 07:48 41.14649 1.15568 241 ft 4 kts 339°
2026-04-23 07:49 41.14624 1.15581 241 ft 3 kts 339°
2026-04-23 07:49 41.14604 1.15598 241 ft 4 kts 297°
2026-04-23 07:49 41.14600 1.15630 241 ft 4 kts 256°
2026-04-23 07:49 41.14604 1.15647 241 ft 1 kts 249°
2026-04-23 07:52 41.14601 1.15639 241 ft 3 kts 249°
2026-04-23 07:52 41.14592 1.15607 241 ft 4 kts 249°
2026-04-23 07:52 41.14577 1.15577 241 ft 4 kts 223°
2026-04-23 07:52 41.14560 1.15565 241 ft 5 kts 197°
2026-04-23 07:53 41.14523 1.15576 241 ft 2 kts 158°
2026-04-23 07:53 41.14522 1.15577 241 ft 0 kts 159°
2026-04-23 07:54 41.14513 1.15581 241 ft 5 kts 159°
2026-04-23 07:55 41.14465 1.15606 241 ft 8 kts 159°
2026-04-23 07:55 41.14425 1.15642 241 ft 6 kts 95°
2026-04-23 07:55 41.14465 1.15776 241 ft 41 kts 69°
2026-04-23 07:55 41.14655 1.16430 241 ft 108 kts 69°
2026-04-23 07:56 41.14998 1.17595 300 ft 156 kts 69°
2026-04-23 07:56 41.15395 1.18937 1017 ft 152 kts 69°
2026-04-23 07:56 41.15778 1.20245 1747 ft 158 kts 71°
2026-04-23 07:56 41.16176 1.21624 2292 ft 172 kts 70°
2026-04-23 07:57 41.16636 1.23214 2595 ft 195 kts 70°
2026-04-23 07:57 41.17138 1.24929 3115 ft 201 kts 70°
2026-04-23 07:57 41.17661 1.26714 3519 ft 218 kts 70°
2026-04-23 07:57 41.18222 1.28614 4190 ft 222 kts 71°
2026-04-23 07:58 41.18788 1.30528 4970 ft 224 kts 71°
2026-04-23 07:58 41.19367 1.32489 5574 ft 233 kts 70°
2026-04-23 07:58 41.19971 1.34532 6166 ft 241 kts 69°
2026-04-23 07:58 41.20657 1.36594 6753 ft 250 kts 54°
2026-04-23 07:59 41.22021 1.37959 7357 ft 250 kts 14°
2026-04-23 07:59 41.23717 1.37920 7997 ft 246 kts 334°
2026-04-23 07:59 41.24987 1.36532 8704 ft 238 kts 297°
2026-04-23 07:59 41.25570 1.34415 9036 ft 255 kts 285°
2026-04-23 08:00 41.26146 1.32089 9381 ft 272 kts 289°
2026-04-23 08:00 41.27144 1.29948 10092 ft 279 kts 316°
2026-04-23 08:00 41.28854 1.28654 10592 ft 296 kts 340°
2026-04-23 08:00 41.30989 1.28276 10760 ft 324 kts 358°
2026-04-23 08:01 41.33318 1.28453 10923 ft 346 kts
2026-04-23 08:01 41.35762 1.28790 11307 ft 358 kts
2026-04-23 08:01 41.38252 1.29174 11920 ft 362 kts
2026-04-23 08:01 41.40759 1.29559 12650 ft 363 kts
2026-04-23 08:02 41.43275 1.29929 13377 ft 365 kts
2026-04-23 08:02 41.45808 1.30287 14078 ft 368 kts
2026-04-23 08:02 41.48369 1.30637 14722 ft 371 kts
2026-04-23 08:02 41.50946 1.30980 15400 ft 373 kts
2026-04-23 08:03 41.53539 1.31321 16088 ft 376 kts
2026-04-23 08:03 41.56149 1.31662 16752 ft 378 kts
2026-04-23 08:03 41.58785 1.32005 17369 ft 382 kts
2026-04-23 08:03 41.61448 1.32351 17989 ft 386 kts
2026-04-23 08:04 41.64132 1.32699 18601 ft 389 kts
2026-04-23 08:04 41.66839 1.33051 19160 ft 392 kts
2026-04-23 08:04 41.69555 1.33406 19741 ft 393 kts
2026-04-23 08:04 41.72250 1.33757 20305 ft 395 kts
2026-04-23 08:05 41.74992 1.34115 20854 ft 397 kts
2026-04-23 08:05 41.77754 1.34475 21402 ft 400 kts
2026-04-23 08:05 41.80529 1.34838 21931 ft 402 kts
2026-04-23 08:05 41.83318 1.35202 22456 ft 404 kts
2026-04-23 08:06 41.86122 1.35569 22968 ft 406 kts
2026-04-23 08:06 41.88944 1.35939 23462 ft 408 kts
2026-04-23 08:06 41.91775 1.36310 23924 ft 410 kts
2026-04-23 08:06 41.94626 1.36684 24340 ft 412 kts
2026-04-23 08:07 41.97487 1.37060 24738 ft 415 kts
2026-04-23 08:07 42.00367 1.37438 25123 ft 417 kts
2026-04-23 08:07 42.03263 1.37820 25501 ft 419 kts
2026-04-23 08:07 42.06177 1.38203 25855 ft 422 kts
2026-04-23 08:08 42.09109 1.38590 26209 ft 424 kts
2026-04-23 08:08 42.12048 1.38979 26583 ft 425 kts
2026-04-23 08:08 42.14999 1.39368 26935 ft 428 kts
2026-04-23 08:08 42.17969 1.39761 27291 ft 430 kts
2026-04-23 08:09 42.20957 1.40156 27658 ft 432 kts
2026-04-23 08:09 42.23955 1.40554 28006 ft 434 kts
2026-04-23 08:09 42.26964 1.40953 28342 ft 436 kts
2026-04-23 08:09 42.29992 1.41354 28658 ft 438 kts
2026-04-23 08:10 42.33032 1.41758 28982 ft 440 kts
2026-04-23 08:10 42.36087 1.42165 29282 ft 442 kts
2026-04-23 08:10 42.42158 1.42976 30154 ft 439 kts
2026-04-23 08:11 42.45190 1.43382 30587 ft 437 kts
2026-04-23 08:11 42.48247 1.43843 30954 ft 438 kts
2026-04-23 08:11 42.51200 1.44724 31267 ft 442 kts 10°
2026-04-23 08:11 42.54170 1.45804 31599 ft 442 kts 10°
2026-04-23 08:12 42.57141 1.46857 31929 ft 440 kts
2026-04-23 08:12 42.60117 1.47756 32206 ft 436 kts
2026-04-23 08:12 42.63121 1.48072 32504 ft 431 kts 355°
2026-04-23 08:12 42.66085 1.47779 32829 ft 425 kts 349°
2026-04-23 08:13 42.69015 1.47290 33151 ft 424 kts 349°
2026-04-23 08:13 42.71940 1.46783 33481 ft 424 kts 349°
2026-04-23 08:13 42.74864 1.46279 33834 ft 423 kts 349°
2026-04-23 08:13 42.77777 1.45787 34169 ft 421 kts 349°
2026-04-23 08:14 42.80690 1.45303 34396 ft 422 kts 349°
2026-04-23 08:14 42.83605 1.44824 34591 ft 423 kts 349°
2026-04-23 08:14 42.86524 1.44349 34798 ft 423 kts 349°
2026-04-23 08:14 42.89444 1.43876 35080 ft 422 kts 349°
2026-04-23 08:15 42.92354 1.43406 35345 ft 421 kts 349°
2026-04-23 08:15 42.95261 1.42935 35561 ft 421 kts 349°
2026-04-23 08:15 42.98171 1.42463 35768 ft 421 kts 349°
2026-04-23 08:15 43.01082 1.41991 36014 ft 421 kts 349°
2026-04-23 08:16 43.03997 1.41517 36118 ft 423 kts 349°
2026-04-23 08:16 43.06927 1.41039 36122 ft 425 kts 349°
2026-04-23 08:16 43.12786 1.40085 36115 ft 422 kts 349°
2026-04-23 08:17 43.18581 1.39141 36117 ft 418 kts 349°
2026-04-23 08:17 43.24338 1.38199 36135 ft 416 kts 349°
2026-04-23 08:18 43.30090 1.37255 36125 ft 416 kts 349°
2026-04-23 08:18 43.35800 1.36317 36128 ft 416 kts 349°
2026-04-23 08:19 43.41560 1.35369 36129 ft 417 kts 349°
2026-04-23 08:19 43.47329 1.34417 36135 ft 418 kts 349°
2026-04-23 08:20 43.53121 1.33461 36132 ft 420 kts 349°
2026-04-23 08:20 43.58926 1.32500 36136 ft 421 kts 349°
2026-04-23 08:21 43.64746 1.31535 36165 ft 422 kts 349°
2026-04-23 08:21 43.70561 1.30450 36158 ft 421 kts 347°
2026-04-23 08:22 43.76319 1.28971 36156 ft 421 kts 345°
2026-04-23 08:22 43.82069 1.27423 36148 ft 421 kts 346°
2026-04-23 08:23 43.87819 1.25903 36148 ft 421 kts 346°
2026-04-23 08:23 43.93571 1.24403 36149 ft 420 kts 346°
2026-04-23 08:24 43.99281 1.22921 36145 ft 420 kts 346°
2026-04-23 08:24 44.05017 1.21430 36151 ft 419 kts 346°
2026-04-23 08:25 44.10744 1.19939 36146 ft 418 kts 346°
2026-04-23 08:25 44.16466 1.18445 36148 ft 418 kts 346°
2026-04-23 08:26 44.22173 1.16952 36159 ft 417 kts 346°
2026-04-23 08:26 44.27877 1.15458 36157 ft 417 kts 346°
2026-04-23 08:27 44.33575 1.13961 36139 ft 416 kts 346°
2026-04-23 08:27 44.39269 1.12463 36155 ft 416 kts 346°
2026-04-23 08:28 44.44966 1.10961 36165 ft 417 kts 346°
2026-04-23 08:28 44.50672 1.09454 36164 ft 418 kts 346°
2026-04-23 08:29 44.56383 1.07942 36167 ft 418 kts 346°
2026-04-23 08:29 44.62102 1.06425 36173 ft 419 kts 346°
2026-04-23 08:30 44.67829 1.04904 36160 ft 419 kts 346°
2026-04-23 08:30 44.73554 1.03379 36166 ft 419 kts 346°
2026-04-23 08:31 44.79281 1.01851 36166 ft 419 kts 346°
2026-04-23 08:31 44.85010 1.00319 36170 ft 419 kts 346°
2026-04-23 08:32 44.90695 0.98797 36171 ft 418 kts 346°
2026-04-23 08:32 44.96409 0.97263 36165 ft 418 kts 346°
2026-04-23 08:33 45.02120 0.95727 36177 ft 418 kts 346°
2026-04-23 08:33 45.07827 0.94189 36169 ft 417 kts 346°
2026-04-23 08:34 45.13527 0.92649 36159 ft 417 kts 346°
2026-04-23 08:34 45.19222 0.91108 36170 ft 416 kts 346°
2026-04-23 08:35 45.24911 0.89565 36160 ft 416 kts 346°
2026-04-23 08:35 45.30595 0.88021 36155 ft 415 kts 346°
2026-04-23 08:36 45.36267 0.86476 36179 ft 415 kts 346°
2026-04-23 08:36 45.41932 0.84931 36185 ft 414 kts 346°
2026-04-23 08:37 45.47586 0.83385 36172 ft 413 kts 346°
2026-04-23 08:37 45.53227 0.81840 36177 ft 412 kts 346°
2026-04-23 08:38 45.58863 0.80293 36193 ft 412 kts 346°
2026-04-23 08:38 45.64495 0.78743 36177 ft 412 kts 346°
2026-04-23 08:39 45.70126 0.77191 36171 ft 412 kts 346°
2026-04-23 08:39 45.75752 0.75637 36178 ft 412 kts 346°
2026-04-23 08:40 45.80438 0.74340 36186 ft 413 kts 346°
2026-04-23 08:40 45.86097 0.72770 36181 ft 415 kts 346°
2026-04-23 08:41 45.91768 0.71195 36181 ft 416 kts 346°
2026-04-23 08:41 45.97451 0.69612 36197 ft 416 kts 346°
2026-04-23 08:42 46.03143 0.68025 36186 ft 417 kts 346°
2026-04-23 08:42 46.08841 0.66432 36183 ft 417 kts 346°
2026-04-23 08:43 46.14527 0.64839 36185 ft 416 kts 346°
2026-04-23 08:43 46.20203 0.63246 36195 ft 415 kts 346°
2026-04-23 08:44 46.25866 0.61652 36192 ft 414 kts 346°
2026-04-23 08:44 46.31516 0.60059 36191 ft 413 kts 346°
2026-04-23 08:45 46.37147 0.58468 36210 ft 412 kts 346°
2026-04-23 08:45 46.42767 0.56876 36210 ft 411 kts 346°
2026-04-23 08:46 46.48378 0.55284 36208 ft 410 kts 346°
2026-04-23 08:46 46.53998 0.53802 36202 ft 412 kts 352°
2026-04-23 08:47 46.59762 0.54108 36196 ft 420 kts
2026-04-23 08:47 46.65503 0.55750 36211 ft 421 kts
2026-04-23 08:48 46.71197 0.57457 36218 ft 421 kts
2026-04-23 08:48 46.76934 0.59150 36218 ft 420 kts
2026-04-23 08:49 46.82669 0.60821 36221 ft 420 kts
2026-04-23 08:49 46.88410 0.62489 36214 ft 421 kts
2026-04-23 08:50 46.94150 0.64159 36225 ft 421 kts
2026-04-23 08:50 46.99896 0.65835 36234 ft 421 kts
2026-04-23 08:51 47.05645 0.67516 36238 ft 421 kts
2026-04-23 08:51 47.11388 0.69199 36245 ft 421 kts
2026-04-23 08:52 47.17130 0.70886 36244 ft 421 kts
2026-04-23 08:52 47.22863 0.72574 36262 ft 420 kts
2026-04-23 08:53 47.28593 0.74264 36265 ft 420 kts
2026-04-23 08:53 47.34318 0.75957 36262 ft 419 kts
2026-04-23 08:54 47.40032 0.77650 36271 ft 419 kts
2026-04-23 08:54 47.45740 0.79345 36262 ft 418 kts
2026-04-23 08:55 47.51435 0.81040 36270 ft 417 kts
2026-04-23 08:55 47.57123 0.82737 36257 ft 417 kts
2026-04-23 08:56 47.62800 0.84434 36275 ft 417 kts
2026-04-23 08:56 47.68478 0.86135 36267 ft 416 kts
2026-04-23 08:57 47.74152 0.87839 36260 ft 415 kts
2026-04-23 08:57 47.79812 0.89542 36256 ft 415 kts
2026-04-23 08:58 47.85448 0.91443 36264 ft 418 kts 13°
2026-04-23 08:58 47.90963 0.94237 36270 ft 419 kts 15°
2026-04-23 08:59 47.96473 0.97126 36269 ft 420 kts 15°
2026-04-23 08:59 48.02005 0.99966 36281 ft 421 kts 15°
2026-04-23 09:00 48.07524 1.02772 36284 ft 422 kts 15°
2026-04-23 09:00 48.13128 1.05624 36284 ft 423 kts 15°
2026-04-23 09:01 48.18671 1.08453 36286 ft 424 kts 15°
2026-04-23 09:01 48.24259 1.11307 36298 ft 425 kts 15°
2026-04-23 09:02 48.29863 1.14161 36291 ft 426 kts 15°
2026-04-23 09:02 48.35475 1.17026 36299 ft 426 kts 15°
2026-04-23 09:03 48.41079 1.19895 36302 ft 425 kts 15°
2026-04-23 09:03 48.46676 1.22777 36308 ft 425 kts 17°
2026-04-23 09:04 48.49373 1.24651 36309 ft 430 kts 28°
2026-04-23 09:04 48.51876 1.27129 36321 ft 430 kts 30°
2026-04-23 09:04 48.56812 1.32248 36324 ft 431 kts 31°
2026-04-23 09:05 48.61752 1.37355 36323 ft 430 kts 31°
2026-04-23 09:05 48.66701 1.42427 36328 ft 429 kts 31°
2026-04-23 09:06 48.71648 1.47486 36321 ft 429 kts 31°
2026-04-23 09:06 48.76583 1.52540 36334 ft 428 kts 31°
2026-04-23 09:07 48.81514 1.57603 36339 ft 428 kts 31°
2026-04-23 09:07 48.86432 1.62666 36339 ft 427 kts 31°
2026-04-23 09:08 48.91353 1.67744 36338 ft 427 kts 31°
2026-04-23 09:08 48.96271 1.72832 36344 ft 428 kts 31°
2026-04-23 09:09 49.01190 1.77938 36352 ft 429 kts 33°
2026-04-23 09:09 49.05811 1.83628 36352 ft 431 kts 38°
2026-04-23 09:10 49.12606 1.92685 36379 ft 433 kts 39°
2026-04-23 09:11 49.17177 1.98702 36375 ft 435 kts 39°
2026-04-23 09:11 49.21778 2.04722 36374 ft 436 kts 39°
2026-04-23 09:12 49.26392 2.10763 36382 ft 437 kts 39°
2026-04-23 09:12 49.31008 2.16824 36392 ft 437 kts 39°
2026-04-23 09:13 49.35627 2.22906 36411 ft 438 kts 39°
2026-04-23 09:13 49.40245 2.28998 36395 ft 438 kts 40°
2026-04-23 09:14 49.44856 2.35105 36389 ft 438 kts 40°
2026-04-23 09:14 49.49459 2.41217 36386 ft 437 kts 40°
2026-04-23 09:15 49.54055 2.47330 36381 ft 437 kts 41°
2026-04-23 09:15 49.58983 2.52780 36390 ft 436 kts 32°
2026-04-23 09:16 49.64164 2.57669 36378 ft 437 kts 32°
2026-04-23 09:16 49.69341 2.62583 36385 ft 437 kts 32°
2026-04-23 09:17 49.74498 2.67561 36375 ft 437 kts 33°
2026-04-23 09:17 49.79653 2.72577 36383 ft 438 kts 34°
2026-04-23 09:18 49.84812 2.77619 36389 ft 439 kts 34°
2026-04-23 09:18 49.89981 2.82686 36389 ft 440 kts 34°
2026-04-23 09:19 49.95166 2.87778 36390 ft 441 kts 34°
2026-04-23 09:19 50.00361 2.92887 36393 ft 442 kts 34°
2026-04-23 09:20 50.05530 2.97990 36393 ft 444 kts 34°
2026-04-23 09:20 50.10746 3.03155 36323 ft 446 kts 34°
2026-04-23 09:20 50.13404 3.05791 36048 ft 447 kts 35°
2026-04-23 09:21 50.15985 3.08352 35792 ft 443 kts 35°
2026-04-23 09:21 50.18579 3.10927 35548 ft 443 kts 36°
2026-04-23 09:21 50.21178 3.13515 35201 ft 443 kts 36°
2026-04-23 09:21 50.23832 3.15999 34592 ft 446 kts 30°
2026-04-23 09:22 50.26636 3.18038 34185 ft 443 kts 27°
2026-04-23 09:22 50.29457 3.19935 33686 ft 440 kts 27°
2026-04-23 09:22 50.32257 3.21807 33248 ft 435 kts 28°
2026-04-23 09:22 50.35020 3.23696 32784 ft 431 kts 30°
2026-04-23 09:23 50.37748 3.25599 32383 ft 427 kts 30°
2026-04-23 09:23 50.40444 3.27497 31946 ft 424 kts 31°
2026-04-23 09:23 50.43088 3.29491 31452 ft 421 kts 33°
2026-04-23 09:23 50.45680 3.31554 31118 ft 416 kts 33°
2026-04-23 09:24 50.48253 3.33605 30688 ft 414 kts 33°
2026-04-23 09:24 50.50818 3.35630 30252 ft 412 kts 33°
2026-04-23 09:24 50.53387 3.37588 29765 ft 410 kts 31°
2026-04-23 09:24 50.55994 3.39403 29309 ft 408 kts 29°
2026-04-23 09:25 50.58594 3.41148 28887 ft 405 kts 29°
2026-04-23 09:25 50.61176 3.42876 28455 ft 401 kts 29°
2026-04-23 09:25 50.63727 3.44599 28046 ft 398 kts 29°
2026-04-23 09:25 50.66258 3.46326 27623 ft 395 kts 29°
2026-04-23 09:26 50.68770 3.48053 27214 ft 392 kts 29°
2026-04-23 09:26 50.71258 3.49773 26804 ft 390 kts 29°
2026-04-23 09:26 50.72900 3.50910 26536 ft 388 kts 28°
2026-04-23 09:26 50.75365 3.52620 26132 ft 386 kts 28°
2026-04-23 09:27 50.77813 3.54321 25733 ft 384 kts 28°
2026-04-23 09:27 50.80251 3.56017 25329 ft 382 kts 28°
2026-04-23 09:27 50.82677 3.57705 24928 ft 380 kts 28°
2026-04-23 09:27 50.85093 3.59388 24531 ft 379 kts 27°
2026-04-23 09:28 50.87501 3.61067 24128 ft 378 kts 27°
2026-04-23 09:28 50.89918 3.62693 23662 ft 378 kts 22°
2026-04-23 09:28 50.92466 3.63749 23220 ft 379 kts 11°
2026-04-23 09:28 50.95092 3.64103 22817 ft 378 kts
2026-04-23 09:29 50.97711 3.64245 22408 ft 376 kts
2026-04-23 09:29 51.00319 3.64357 22005 ft 373 kts
2026-04-23 09:29 51.02903 3.64478 21615 ft 371 kts
2026-04-23 09:29 51.05471 3.64615 21223 ft 368 kts
2026-04-23 09:30 51.08020 3.64766 20834 ft 365 kts
2026-04-23 09:30 51.10550 3.64923 20453 ft 363 kts
2026-04-23 09:30 51.13065 3.65083 20067 ft 361 kts
2026-04-23 09:30 51.15560 3.65244 19689 ft 358 kts
2026-04-23 09:31 51.18051 3.65403 19307 ft 356 kts
2026-04-23 09:31 51.20510 3.65693 18952 ft 351 kts 15°
2026-04-23 09:31 51.22664 3.67311 18706 ft 340 kts 42°
2026-04-23 09:31 51.24200 3.70106 18472 ft 333 kts 58°
2026-04-23 09:32 51.25409 3.73246 18210 ft 333 kts 60°
2026-04-23 09:32 51.26584 3.76452 17951 ft 337 kts 61°
2026-04-23 09:32 51.27762 3.79694 17688 ft 337 kts 61°
2026-04-23 09:32 51.28937 3.82919 17406 ft 335 kts 60°
2026-04-23 09:33 51.30111 3.86125 17150 ft 334 kts 60°
2026-04-23 09:33 51.31286 3.89318 16889 ft 332 kts 60°
2026-04-23 09:33 51.32458 3.92493 16642 ft 331 kts 60°
2026-04-23 09:33 51.33627 3.95656 16387 ft 330 kts 60°
2026-04-23 09:34 51.34793 3.98809 16141 ft 329 kts 60°
2026-04-23 09:34 51.35955 4.01952 15893 ft 328 kts 60°
2026-04-23 09:34 51.37112 4.05084 15645 ft 326 kts 60°
2026-04-23 09:34 51.38264 4.08205 15399 ft 325 kts 60°
2026-04-23 09:35 51.39409 4.11310 15158 ft 323 kts 60°
2026-04-23 09:35 51.40546 4.14399 14921 ft 321 kts 59°
2026-04-23 09:35 51.41679 4.17476 14681 ft 320 kts 59°
2026-04-23 09:35 51.42803 4.20538 14446 ft 318 kts 59°
2026-04-23 09:36 51.43923 4.23589 14199 ft 317 kts 59°
2026-04-23 09:36 51.45036 4.26627 13925 ft 315 kts 59°
2026-04-23 09:36 51.46142 4.29648 13651 ft 313 kts 59°
2026-04-23 09:36 51.47242 4.32655 13404 ft 312 kts 59°
2026-04-23 09:37 51.48335 4.35646 13138 ft 310 kts 59°
2026-04-23 09:37 51.49421 4.38623 12875 ft 308 kts 59°
2026-04-23 09:37 51.50502 4.41591 12617 ft 307 kts 59°
2026-04-23 09:37 51.51579 4.44546 12365 ft 306 kts 59°
2026-04-23 09:38 51.52649 4.47491 12110 ft 305 kts 59°
2026-04-23 09:38 51.53714 4.50426 11855 ft 304 kts 59°
2026-04-23 09:38 51.54774 4.53350 11611 ft 303 kts 59°
2026-04-23 09:38 51.55833 4.56271 11378 ft 302 kts 59°
2026-04-23 09:39 51.56888 4.59185 11128 ft 302 kts 59°
2026-04-23 09:39 51.57939 4.62095 10884 ft 301 kts 59°
2026-04-23 09:39 51.58988 4.65003 10642 ft 300 kts 59°
2026-04-23 09:39 51.59755 4.68115 10403 ft 302 kts 78°
2026-04-23 09:40 51.59950 4.71455 10187 ft 298 kts 84°
2026-04-23 09:40 51.60077 4.74753 9913 ft 293 kts 84°
2026-04-23 09:40 51.60205 4.77996 9654 ft 288 kts 84°
2026-04-23 09:40 51.60341 4.81182 9384 ft 283 kts 83°
2026-04-23 09:41 51.60483 4.84317 9126 ft 279 kts 83°
2026-04-23 09:41 51.60629 4.87417 8786 ft 278 kts 83°
2026-04-23 09:41 51.60778 4.90530 8408 ft 277 kts 83°
2026-04-23 09:41 51.60925 4.93577 8079 ft 271 kts 83°
2026-04-23 09:42 51.61071 4.96576 7755 ft 267 kts 83°
2026-04-23 09:42 51.61215 4.99552 7432 ft 266 kts 83°
2026-04-23 09:42 51.61359 5.02513 7123 ft 265 kts 83°
2026-04-23 09:42 51.61500 5.05433 6802 ft 264 kts 84°
2026-04-23 09:43 51.61641 5.08374 6465 ft 263 kts 84°
2026-04-23 09:43 51.61782 5.11347 6139 ft 263 kts 84°
2026-04-23 09:43 51.61754 5.14284 5774 ft 266 kts 102°
2026-04-23 09:43 51.60897 5.16859 5462 ft 269 kts 131°
2026-04-23 09:44 51.59366 5.18533 5116 ft 268 kts 159°
2026-04-23 09:44 51.57549 5.18949 4804 ft 264 kts 182°
2026-04-23 09:44 51.55748 5.18546 4461 ft 259 kts 189°
2026-04-23 09:44 51.53988 5.18030 4146 ft 256 kts 189°
2026-04-23 09:45 51.52259 5.17540 3904 ft 249 kts 188°
2026-04-23 09:45 51.50569 5.17048 3621 ft 244 kts 188°
2026-04-23 09:45 51.48920 5.16576 3369 ft 237 kts 188°
2026-04-23 09:45 51.47326 5.16123 3143 ft 227 kts 188°
2026-04-23 09:46 51.45803 5.15685 3037 ft 217 kts 188°
2026-04-23 09:46 51.44357 5.15265 2998 ft 205 kts 188°
2026-04-23 09:46 51.42951 5.14867 3002 ft 205 kts 188°
2026-04-23 09:46 51.41547 5.14472 2997 ft 204 kts 188°
2026-04-23 09:47 51.40142 5.14235 2971 ft 202 kts 168°
2026-04-23 09:47 51.38993 5.15299 2987 ft 191 kts 128°
2026-04-23 09:47 51.38091 5.16867 2997 ft 194 kts 132°
2026-04-23 09:47 51.37101 5.18385 2894 ft 200 kts 133°
2026-04-23 09:48 51.36101 5.19893 2724 ft 196 kts 133°
2026-04-23 09:48 51.35114 5.21360 2570 ft 193 kts 134°
2026-04-23 09:48 51.34258 5.22936 2385 ft 183 kts 110°
2026-04-23 09:48 51.34249 5.24808 2239 ft 167 kts 60°
2026-04-23 09:49 51.35062 5.26083 2177 ft 170 kts 39°
2026-04-23 09:49 51.36000 5.27281 2059 ft 171 kts 37°
2026-04-23 09:49 51.36967 5.28409 1821 ft 171 kts 35°
2026-04-23 09:49 51.37929 5.29491 1581 ft 168 kts 35°
2026-04-23 09:50 51.38849 5.30523 1389 ft 156 kts 35°
2026-04-23 09:50 51.39693 5.31472 1197 ft 144 kts 35°
2026-04-23 09:50 51.40513 5.32394 1009 ft 145 kts 35°
2026-04-23 09:50 51.41331 5.33315 797 ft 143 kts 34°
2026-04-23 09:51 51.42136 5.34224 608 ft 142 kts 34°
2026-04-23 09:51 51.42947 5.35134 390 ft 143 kts 34°
2026-04-23 09:51 51.43758 5.36047 208 ft 142 kts 35°
2026-04-23 09:51 51.44562 5.36944 74 ft 134 kts 34°
2026-04-23 09:52 51.45197 5.37658 65 ft 90 kts 35°
2026-04-23 09:52 51.45582 5.38088 68 ft 45 kts 35°
2026-04-23 09:52 51.45810 5.38343 65 ft 35 kts 35°
2026-04-23 09:52 51.45911 5.38479 68 ft 11 kts 75°
2026-04-23 09:53 51.45877 5.38584 71 ft 10 kts 124°
2026-04-23 09:53 51.45839 5.38671 71 ft 9 kts 125°
2026-04-23 09:53 51.45803 5.38753 70 ft 9 kts 126°
2026-04-23 09:53 51.45800 5.38840 67 ft 9 kts 46°
2026-04-23 09:54 51.45859 5.38909 68 ft 12 kts 35°
2026-04-23 09:54 51.45922 5.38981 71 ft 8 kts 44°
2026-04-23 09:54 51.45908 5.39055 67 ft 7 kts 124°
2026-04-23 09:54 51.45891 5.39094 70 ft 2 kts 124°
2026-04-23 09:55 51.45889 5.39098 71 ft 0 kts 124°